OPS 4682 DEB, 55113

Orbit data source: Space-Track

OPS 4682 DEB, 55113 is space debris in LEO originally from a launch on Sat, 03 Apr 1965 UTC launched from the Air Force Western Test Range (AFWTR). Debris objects in space refer to the collection of defunct objects orbiting the Earth. Examples of debris include non-operational satellites, rocket bodies, and fragments generated from explosions, collisions, or faulty payload assembly.

Loading next visibility...
Identifier
55113, 1965-027HC
Orbit
LEO
Country
Flag of USUS
Related business
Manufacturer
Unknown
Mission
Spacecraft
Bus & Motor
Unknown
Mass
Unknown
Launch date (UTC)
1965-04-03 (61 years ago)
Launch vehicle
Unknown
Launch site
Air Force Western Test Range (AFWTR)
Object type
Payload
Rocket body
Debris
Shape & HBR
Unknown shape, 1.1 m
Radar Cross Section
Medium (>0.1 m² and <1 m²)

Expand to show TLE details & history
Last TLE update: 15 hours ago

TLE from 15 hours ago
0 OPS 4682 DEB
1 55113U 65027HC  26237.59992323  .00000673  00000-0  23052-2 0  9997
2 55113  90.2529  11.0858 0020750 274.4437  85.4313 12.97078222603634
Epoch: 2026-08-25T14:23Z
TLE epoch observation values (Epoch: 2026-08-25T14:23:53.367Z)
Latitude
0.00002°
Longitude
-178.75151°
Altitude
1,275.203 km
Speed
7.219 km/s
True Right ascension
00h 44m 20s
True Declination
0° 00' 00"
Sunlit
Object was in full shadow at epoch
Visualization orbit readout
Latitude
Unknown
Longitude
Unknown
Altitude
Unknown
Speed
Unknown
Apparent Right ascension
Unknown
Apparent Declination
Unknown
Sunlit
N/A
Visualization observer readout
Local Sidereal Time
20:44:42
Azimuth
Unknown
Elevation
Unknown
Doppler factor
Unknown
Orbital elements
Apogee altitude
1,286.558 km
Perigee altitude
1,254.816 km
Semi-major axis
7,648.824 km
Eccentricity
0.00208
Inclination
90.2529°
RAAN
11.0858°
Arg. of periapsis
274.4437°
True anomaly
85.66837°
Mean anomaly
85.4313°
Eccentric anomaly
85.54983°
Mean motion
3.24453 °/min
Orbital period
110.96 mins
BSTAR
0.0023052
Loading maneuver chart data...
Computing Atmospheric mass density...
Loading historical data...
Loading historical data...
Loading historical data...
Loading historical data...
Loading historical data...
Loading historical data...
Loading historical data...

Documentation

Showing up to 5 results
|